GEFSNE_500_meanwind_192.txt.gz
Wind_Speed
51 51 51 51 51 51 50 49 49 49 48 47 47 47 47 47 47 47 48 47 47 48 48 48 48 49 49 49 49 50 51 51 52 52 52 52 52 52
52 52 51 51 52 52 51 51 51 50 49 48 48 48 48 48 48 48 48 47 48 49 49 49 49 50 50 50 51 52 52 53 53 53 53 53 52 53
53 53 52 52 53 53 52 52 52 52 51 49 49 49 49 48 48 48 48 49 50 50 50 50 50 50 51 51 52 52 53 53 53 53 53 53 53 53
53 53 53 53 53 52 53 53 52 52 52 51 50 50 50 50 50 50 49 50 51 50 50 50 51 51 51 52 52 52 53 53 53 52 52 52 53 52
53 52 51 52 52 52 52 52 52 52 52 53 51 50 51 51 51 51 50 51 51 50 50 50 51 51 51 52 53 53 53 53 53 52 51 52 52 52
52 51 51 51 52 51 51 50 50 51 52 52 52 51 51 51 51 50 50 50 50 50 50 50 50 51 51 52 53 53 53 53 52 51 51 52 52 52
52 51 51 51 51 50 50 50 50 51 51 51 51 51 51 51 49 49 49 49 49 49 50 50 51 52 52 52 52 52 52 52 52 52 52 52 52 52
50 49 49 50 50 49 49 49 49 51 50 50 50 50 49 49 49 49 49 49 50 50 50 51 51 51 51 52 52 52 52 52 52 52 52 52 52 51
48 48 49 49 49 49 50 50 50 50 50 51 51 50 49 49 50 50 50 50 49 49 49 49 50 50 51 51 51 51 50 51 51 51 51 51 51 51
47 47 48 48 49 49 50 49 49 49 49 50 50 49 49 50 49 49 49 49 49 49 49 50 51 51 51 50 50 49 50 50 49 50 50 50 50 49
47 47 47 47 47 48 48 48 47 48 48 48 48 48 48 48 48 48 47 48 48 48 48 49 49 49 49 49 49 49 49 49 49 50 50 49 49 49
47 47 46 45 46 47 47 46 45 45 45 46 47 48 47 46 46 46 46 48 48 48 47 48 48 48 47 47 48 48 48 48 49 49 49 48 48 48
45 45 45 45 45 45 45 44 44 45 45 46 45 45 46 46 46 47 47 48 48 48 47 47 46 46 46 46 46 47 47 48 48 47 47 47 47 47
43 43 43 43 43 43 43 43 43 44 44 44 44 44 44 45 45 46 46 46 46 46 45 45 45 45 45 45 45 46 46 46 46 46 46 45 45 45
42 40 41 41 41 41 41 42 42 41 41 42 43 43 43 43 43 43 44 44 44 43 43 44 43 43 43 43 44 44 44 44 44 44 44 45 45 44
41 40 39 40 40 40 41 41 41 40 41 41 42 42 42 42 42 43 43 42 42 41 41 41 41 41 42 42 43 43 43 42 43 43 44 44 43 42
38 38 39 39 38 39 40 41 41 42 42 41 41 41 41 41 40 40 40 39 40 40 40 40 41 41 42 43 42 42 42 41 41 41 41 41 41 41
37 37 37 38 38 39 39 39 40 41 41 41 41 40 40 40 39 39 39 39 39 39 39 39 40 41 41 41 40 40 40 40 40 40 40 40 40 40
36 35 35 35 36 36 37 37 38 39 39 39 39 39 39 39 39 38 38 38 38 38 38 38 39 39 39 39 39 39 40 40 39 39 39 39 37 36
35 35 34 34 34 35 35 36 36 36 36 37 37 37 38 38 38 37 37 37 37 36 36 36 36 37 37 38 38 38 39 39 38 38 38 37 35 34
33 33 33 33 33 33 34 34 34 34 34 35 35 36 36 36 36 36 36 35 35 35 35 35 36 37 38 38 37 37 37 37 37 36 34 33 31 30
30 31 31 32 32 32 32 33 33 33 33 33 34 34 34 34 35 35 35 35 35 36 35 35 36 37 37 36 35 35 34 34 33 32 30 28 27 26
29 29 30 30 31 31 31 31 31 32 32 32 32 33 34 34 34 34 34 34 34 35 35 35 36 35 35 34 33 31 30 29 28 27 26 25 24 22

GEFSNE_500_meanwind_198.txt.gz
Wind_Speed
58 58 57 56 56 56 56 56 55 55 53 51 51 51 51 51 50 49 49 48 48 48 48 49 49 49 48 48 48 48 47 48 48 48 49 49 49 49
58 58 58 57 57 57 56 56 55 55 53 50 50 50 50 50 50 49 49 49 48 48 48 48 49 49 48 49 48 48 48 49 50 51 50 50 50 51
57 57 57 56 57 56 56 56 56 54 53 50 50 50 50 49 50 50 50 50 49 49 49 49 49 48 48 48 48 49 50 51 50 50 51 50 50 50
56 56 56 55 55 54 54 55 54 54 52 50 50 50 49 49 49 50 50 50 50 50 49 49 47 48 48 48 49 50 51 52 51 50 50 50 50 50
55 55 54 54 54 54 54 54 54 53 52 51 50 50 49 49 50 50 50 50 51 51 50 49 48 47 47 49 49 50 51 51 50 50 50 51 50 49
53 53 52 52 52 53 53 53 52 52 52 51 50 50 49 49 49 50 49 50 50 49 48 48 48 48 48 49 50 50 50 50 50 50 50 50 49 50
51 51 51 51 52 52 52 51 51 51 52 51 49 49 48 48 49 49 49 49 48 48 47 47 46 48 49 50 51 51 51 50 50 50 49 50 49 50
49 49 49 50 50 51 51 50 50 50 51 50 48 47 47 47 47 48 48 48 47 46 47 47 47 48 49 50 50 50 49 49 49 49 49 50 50 50
49 48 48 48 48 49 49 50 50 50 50 50 48 46 46 46 47 47 47 46 46 46 46 46 47 48 49 49 49 48 48 48 48 48 49 49 49 49
49 48 46 46 47 48 49 50 50 49 48 48 47 47 47 47 48 47 46 46 46 46 46 46 47 48 48 48 48 47 47 47 47 48 48 48 49 50
45 45 45 46 45 46 47 47 47 47 47 47 48 47 46 46 46 46 46 45 45 45 45 45 45 46 47 47 47 47 47 47 47 48 48 48 48 49
44 44 45 45 44 45 45 45 46 46 46 46 46 45 45 44 44 44 44 44 45 44 44 45 45 46 46 46 46 46 46 47 47 47 47 47 47 47
42 43 43 44 44 43 43 43 43 44 45 45 44 43 43 43 43 43 42 42 43 43 44 45 45 45 45 44 44 45 46 46 46 46 46 46 47 46
41 41 42 42 43 42 42 42 42 43 43 41 41 41 41 42 42 41 41 41 41 42 43 44 44 44 43 43 43 44 45 45 45 45 45 45 45 45
39 39 40 40 41 41 41 41 41 41 40 39 40 40 40 40 40 41 41 40 41 41 41 42 43 43 43 43 43 43 43 42 42 43 43 43 43 43
37 38 38 39 40 39 38 37 37 37 37 38 38 38 39 39 39 39 39 39 40 39 39 40 41 41 42 42 41 40 40 40 40 41 41 41 41 42
35 36 36 36 36 36 35 35 34 34 35 35 37 37 38 38 38 38 38 38 39 38 39 40 40 40 39 39 39 38 38 38 39 39 39 39 40 40
33 34 34 34 34 33 33 33 33 33 34 34 35 35 36 36 36 36 37 37 38 38 39 39 39 38 38 37 36 36 35 36 36 36 36 36 37 37
29 29 30 30 31 30 31 32 32 32 33 33 33 34 34 35 35 35 35 35 36 36 36 37 36 36 36 35 34 33 33 33 33 34 34 35 35 35
29 29 29 29 29 29 30 30 31 31 32 32 32 33 33 33 34 33 34 34 35 35 36 36 36 35 34 34 33 33 32 32 32 32 33 33 32 32
27 27 27 26 27 28 28 29 29 30 30 31 31 31 31 31 32 32 33 34 34 35 35 35 34 33 33 33 32 31 31 31 31 31 31 30 29 28
25 25 25 26 26 26 26 27 27 28 29 30 30 30 30 30 31 32 33 33 33 34 34 33 33 32 32 32 31 31 31 31 31 30 29 27 26 25
22 23 23 23 24 24 24 25 26 26 27 28 28 29 29 29 30 30 31 32 32 32 32 31 31 31 31 31 30 30 30 29 28 27 25 24 24 23

GEFSNE_500_meanwind_204.txt.gz
Wind_Speed
55 56 56 56 56 57 57 57 57 57 56 54 54 53 53 53 52 52 51 50 50 50 49 49 49 49 49 48 48 48 47 47 47 47 47 47 46 46
55 56 56 56 56 56 56 56 57 56 55 52 52 51 52 52 51 51 51 50 50 49 49 49 50 50 48 48 48 48 48 48 48 48 48 47 47 47
55 55 54 54 55 55 56 56 55 55 54 52 52 51 51 51 52 52 51 51 50 49 49 49 49 49 48 48 47 48 49 49 48 48 48 47 47 48
53 54 55 54 53 54 55 55 54 53 53 52 51 51 51 51 52 52 52 51 50 50 49 49 49 49 48 47 47 48 48 49 49 48 47 48 48 47
53 53 54 54 53 52 53 53 53 52 52 52 51 51 50 50 51 51 51 51 50 49 49 49 49 49 48 48 48 48 49 49 48 47 47 47 47 47
53 53 51 51 51 52 51 50 51 51 52 52 51 50 49 49 50 50 51 50 49 49 48 48 47 47 47 47 48 49 49 48 47 46 46 47 47 47
52 52 51 50 50 50 50 50 51 51 52 52 51 50 49 49 49 49 50 49 49 48 47 47 47 47 47 47 48 48 47 45 45 45 45 46 47 47
51 51 50 49 48 49 49 49 50 51 51 51 50 50 49 49 48 47 48 48 47 46 46 45 45 46 46 46 46 46 45 44 44 44 45 46 46 46
49 50 49 48 49 48 48 48 48 49 48 48 48 49 48 47 47 46 46 47 46 46 46 45 45 45 45 45 45 45 45 44 44 44 45 45 45 44
47 47 47 47 47 48 48 48 48 47 46 46 46 46 46 46 46 46 45 45 45 45 44 44 44 45 45 45 45 45 45 44 43 43 43 43 43 43
45 45 45 46 46 47 48 48 48 46 45 45 45 44 44 44 44 43 43 44 43 43 43 44 44 44 44 44 44 44 44 43 43 42 43 43 43 43
44 44 44 44 44 45 45 45 45 44 43 42 43 43 43 42 42 42 42 42 42 43 42 43 43 44 44 43 42 42 43 43 42 42 42 43 43 42
41 41 42 43 42 42 42 42 41 40 40 40 41 42 42 41 40 39 39 40 40 40 41 41 41 42 42 42 42 41 41 42 41 41 41 42 42 41
39 39 40 40 40 40 39 38 38 39 39 39 38 39 40 39 38 38 38 38 39 39 39 39 39 40 40 41 41 41 41 41 40 40 40 40 40 40
36 36 36 36 36 36 36 36 36 37 38 37 36 36 37 38 38 38 37 37 37 37 38 38 39 39 40 40 40 40 40 39 40 40 40 40 40 40
34 33 33 34 34 33 33 33 34 35 36 36 36 35 35 35 36 36 36 36 36 36 37 38 38 39 39 38 38 39 39 39 39 40 40 40 39 39
31 31 30 30 31 31 32 32 32 32 33 34 34 34 33 33 34 35 35 35 35 35 36 37 37 37 37 37 37 37 37 37 37 37 37 37 37 37
29 29 29 30 31 31 31 31 31 31 32 32 32 32 32 32 32 32 34 34 34 34 35 35 36 36 35 35 36 35 35 35 35 35 34 35 35 35
28 28 28 29 29 29 30 31 31 31 31 30 29 29 30 31 31 31 31 32 32 32 32 33 34 33 33 33 33 34 34 34 33 32 32 33 32 32
26 26 26 26 26 27 28 28 29 29 29 27 27 27 28 28 29 30 30 31 31 31 31 32 32 32 32 31 31 32 32 31 31 30 30 31 30 30
23 23 23 23 24 24 24 25 25 26 25 24 24 25 26 27 28 29 29 29 29 30 30 30 30 30 30 30 30 29 29 29 29 29 29 29 29 28
21 21 21 21 22 22 23 23 23 23 23 24 24 25 25 26 27 27 27 27 28 28 29 29 29 29 28 28 28 28 27 26 27 28 28 28 27 26
20 20 21 21 21 21 21 22 22 22 23 23 23 24 24 25 25 26 25 25 26 27 27 26 26 26 26 26 26 25 25 25 26 25 25 24 24 22

GEFSNE_500_meanwind_210.txt.gz
Wind_Speed
54 54 53 53 53 52 53 54 56 55 53 51 51 50 51 51 51 50 51 51 51 51 51 51 50 49 49 49 48 47 47 48 48 48 48 47 47 46
53 53 53 53 52 52 52 53 53 53 52 49 50 50 51 51 51 51 52 52 51 51 51 50 51 50 49 49 48 47 47 47 48 48 48 48 47 47
52 53 53 53 53 52 51 50 50 51 52 50 50 50 50 51 51 51 51 51 51 51 51 51 51 50 48 48 48 47 46 46 47 48 48 48 48 47
52 53 52 52 52 52 50 50 50 51 52 52 51 50 50 50 51 51 51 51 51 51 51 50 50 49 48 48 48 47 46 46 46 46 47 48 48 48
52 52 52 52 52 52 51 50 50 50 51 52 50 50 50 51 52 52 52 51 51 50 49 49 49 48 48 49 48 47 47 47 45 44 46 47 47 47
51 52 52 52 52 51 51 50 49 49 50 51 50 49 49 50 50 50 49 48 49 49 49 48 48 47 47 47 46 46 46 45 44 44 45 46 47 47
51 51 52 51 51 51 51 51 50 49 49 50 50 49 49 49 49 48 47 46 45 46 47 46 45 45 46 46 46 44 44 44 43 43 45 46 47 46
50 50 51 51 51 50 51 51 50 49 49 48 48 47 48 48 47 46 46 45 45 44 44 44 44 44 44 44 44 43 42 42 43 43 44 45 46 46
49 49 49 49 49 49 49 50 50 49 49 48 47 46 46 46 45 45 45 45 44 42 42 42 43 43 42 42 41 41 41 41 42 43 44 44 44 44
48 48 47 46 46 47 48 49 48 47 47 47 46 44 43 43 43 44 44 43 42 41 41 41 41 41 41 40 40 40 41 41 41 42 43 43 43 42
46 46 45 44 44 44 44 44 43 43 44 44 43 43 42 41 41 41 41 41 39 38 39 39 39 40 39 39 39 40 40 39 40 41 42 42 42 42
44 43 43 42 41 41 40 40 40 40 40 41 41 41 40 39 39 39 39 39 38 36 36 37 37 38 39 39 38 38 38 38 39 40 40 40 40 41
42 41 40 39 38 38 39 38 38 38 38 39 38 37 37 37 36 35 34 35 35 34 34 35 35 36 37 37 37 37 37 38 38 38 38 38 39 39
40 39 37 37 36 37 37 36 37 37 36 36 36 35 34 33 34 34 33 33 33 33 33 33 34 34 35 35 36 37 37 38 37 37 37 38 38 38
38 37 36 35 35 35 35 35 35 35 35 35 33 32 32 32 32 32 31 32 33 33 33 32 32 33 34 35 35 35 36 36 36 36 37 37 37 37
35 34 33 33 33 33 33 32 32 32 32 31 31 30 31 31 31 31 30 31 32 31 31 32 32 32 33 34 35 35 35 35 35 36 36 36 36 36
31 31 31 32 32 32 31 31 30 30 30 29 29 30 29 29 29 29 29 29 30 30 30 30 31 32 32 33 33 33 33 32 33 33 34 34 34 35
28 28 29 29 28 28 29 29 29 29 28 28 28 27 27 27 27 28 28 28 28 29 29 29 30 30 30 30 30 30 30 31 32 32 32 32 32 32
25 25 25 25 26 26 27 28 27 27 27 27 27 26 26 26 26 26 27 27 27 28 27 27 28 28 27 27 27 28 29 30 30 30 30 30 30 30
23 23 23 23 23 24 25 25 25 26 26 26 26 26 26 25 26 26 26 26 26 27 27 26 26 25 25 25 25 26 26 27 28 28 28 28 28 28
22 22 21 21 21 22 22 23 23 24 24 24 24 25 25 24 24 24 24 25 25 25 25 25 23 23 23 24 24 24 25 25 26 26 26 26 27 26
20 20 20 20 20 21 21 22 22 21 21 21 21 21 22 22 22 22 23 24 23 23 22 22 22 22 22 22 22 23 23 23 23 23 24 25 25 25
18 18 18 18 18 18 18 18 18 18 19 19 19 19 20 20 21 21 22 22 22 21 20 20 21 21 21 22 22 22 23 22 22 21 22 23 23 23

GEFSNE_500_meanwind_216.txt.gz
Wind_Speed
54 54 54 55 55 55 56 56 57 56 54 53 53 53 53 53 53 53 53 54 54 54 53 53 54 54 53 53 53 52 51 51 51 50 50 50 50 50
54 54 54 54 55 55 56 56 57 57 55 53 52 53 53 53 52 53 53 53 54 53 54 54 54 55 54 53 52 52 52 52 52 52 52 51 51 50
53 53 53 54 54 54 55 55 56 56 55 53 52 52 53 53 52 52 53 53 54 54 54 54 53 53 53 52 52 52 52 53 53 53 53 52 51 50
52 53 54 54 54 54 54 54 55 55 55 53 52 53 53 53 53 53 53 54 54 54 54 53 53 53 53 53 53 53 53 54 54 53 53 51 50 50
52 52 53 53 53 53 53 53 54 54 54 54 53 53 53 53 54 54 54 55 55 55 54 53 53 52 51 51 51 51 52 52 52 51 50 50 49 49
51 51 52 53 52 52 52 52 52 53 53 53 53 53 52 52 54 54 53 53 52 53 53 52 51 50 49 49 49 49 49 50 50 48 47 48 48 47
51 50 51 51 52 52 52 52 51 51 52 52 52 52 52 51 51 51 51 50 50 50 49 49 49 49 48 47 46 47 47 47 47 46 46 46 45 46
50 50 50 50 50 50 50 50 50 50 50 50 50 50 50 49 49 49 48 48 48 48 48 48 47 46 46 46 46 45 44 44 45 44 44 44 44 45
49 49 49 48 48 49 49 49 50 49 49 48 48 48 48 47 46 45 45 46 45 45 46 45 45 44 43 44 44 43 41 41 42 42 42 42 42 42
50 49 48 48 48 48 48 49 49 48 48 47 47 46 45 45 43 43 43 43 43 43 43 42 41 40 39 39 40 39 39 40 39 39 40 40 40 40
48 48 48 47 47 48 48 47 47 46 46 45 44 43 42 42 41 41 40 41 40 40 40 39 37 38 38 38 37 36 37 39 39 39 39 38 39 39
47 47 47 47 47 46 45 45 44 42 42 41 41 41 40 40 39 39 38 38 38 36 35 35 35 36 36 36 36 35 36 37 39 39 39 38 38 38
46 46 46 45 44 43 42 41 39 39 38 38 38 38 39 39 38 37 37 36 36 34 34 34 33 33 34 34 35 34 35 36 37 38 39 39 38 37
44 44 44 42 41 39 38 38 37 36 37 37 36 36 36 36 35 35 35 35 33 32 32 32 31 31 32 33 34 34 34 35 36 36 36 38 37 37
42 41 40 39 37 36 36 35 34 34 34 34 34 34 34 34 34 34 34 33 33 33 32 32 31 30 31 32 33 32 32 32 33 33 34 35 35 35
38 36 36 34 33 33 33 33 32 32 32 32 32 32 32 32 32 31 31 32 32 31 31 31 31 30 30 30 31 32 31 31 31 32 32 31 32 33
33 31 30 30 30 30 30 30 30 30 31 30 30 30 30 29 29 29 29 29 29 29 30 30 30 29 29 29 30 30 29 30 30 30 30 30 30 30
29 28 27 26 27 28 28 29 29 30 29 28 28 28 27 27 27 27 27 28 29 29 29 29 29 29 29 29 29 29 28 28 28 28 29 28 29 29
26 25 24 23 24 25 26 27 27 27 26 25 25 25 24 24 24 25 25 26 27 28 28 28 28 27 27 27 27 28 27 27 27 27 27 27 27 27
23 22 21 21 21 22 23 23 24 24 24 24 24 23 22 23 23 23 24 24 25 26 25 25 25 25 25 25 26 26 27 27 27 27 26 26 26 26
20 19 19 19 20 20 20 20 20 20 21 21 22 22 22 22 22 22 23 23 23 23 23 23 24 24 24 24 24 25 25 25 25 24 25 25 25 25
18 18 18 18 18 18 18 18 18 18 18 19 19 20 20 20 21 21 21 22 21 21 22 23 23 24 24 23 23 23 22 23 23 23 23 23 22 21
17 17 17 17 17 17 18 17 17 16 17 17 18 18 19 19 20 20 20 20 20 21 21 21 21 21 21 21 20 20 20 21 21 22 22 21 20 20